Autor Thema: FSK mit dem SIGNALDuino  (Gelesen 49169 mal)

Offline Ralf9

  • Developer
  • Hero Member
  • ****
  • Beiträge: 4398
Antw:FSK mit dem SIGNALDuino
« Antwort #285 am: 02 August 2021, 11:07:34 »
Zitat
id              20B0170C

Bei Alex ist die ID  20B00C16, wenn es Dir nichts ausmacht, wenn der rain Zähler auf 0 zurückgesetzt wird,
dann kannst Du mal testen ob die ID sich ändert, wenn Du kurz die Batterie rausnimmst.
Wenn Du fast leere Batterien hast, kannst Du auch mal testen ob der Sensor den Batteriezustand mitsendet.
FHEM auf Cubietruck mit Igor-Image, SSD und  hmland + HM-CFG-USB-2,  HMUARTLGW Lan,   HM-LC-Bl1PBU-FM, HM-CC-RT-DN, HM-SEC-SC-2, HM-MOD-Re-8, HM-MOD-Em-8
HM-Wired:  HMW_IO_12_FM, HMW_Sen_SC_12_DR, Selbstbau IO-Module HBW_IO_SW
Maple-SIGNALduino, WH3080,  Hideki, Id 7

Offline Brillomat

  • New Member
  • *
  • Beiträge: 41
Antw:FSK mit dem SIGNALDuino
« Antwort #286 am: 02 August 2021, 12:17:00 »
[...]dann kannst Du mal testen ob die ID sich ändert, wenn Du kurz die Batterie rausnimmst.[...]
Sobald es hier nicht mehr regnet, werde ich das testen und Dir eine Rückmeldung geben.

Wenn Du fast leere Batterien hast, kannst Du auch mal testen ob der Sensor den Batteriezustand mitsendet.

Also laut Bresser Basisstation ist der Batteriezustand bereits low.
Im FHEM Listing ist er "ok"
2021-08-02 12:15:16   batteryState    ok
LG
Michael

Offline Brillomat

  • New Member
  • *
  • Beiträge: 41
Antw:FSK mit dem SIGNALDuino
« Antwort #287 am: 02 August 2021, 12:58:16 »
[...] dann kannst Du mal testen ob die ID sich ändert, wenn Du kurz die Batterie rausnimmst.
Wenn Du fast leere Batterien hast, kannst Du auch mal testen ob der Sensor den Batteriezustand mitsendet.

[...]
2021-08-02 12:54:59   batteryState    low
2021-08-02 12:54:59   id              20B0170C
[...]

Hi,

also nach Batterieentnahme bleibt die ID identisch, aber der Batteriestatus hat sich geändert und zwar von ok auf low.

LG,
Michael

Offline elektron-bbs

  • Full Member
  • ***
  • Beiträge: 375
    • Elektron BBS
Antw:FSK mit dem SIGNALDuino
« Antwort #288 am: 02 August 2021, 17:44:24 »
Lädst du mal bitte ein paar DMSG und RAWMSG mit allen Readings hoch, oder halt das Log vom Sensor, falls diese Daten dort enthalten sind, so wie hier im Beispiel:

2021-08-01_14:39:19 SD_WS_115_0 T: 18.6 H: 60 W: 1.7
2021-08-01_14:39:19 SD_WS_115_0 temperature: 18.6
2021-08-01_14:39:19 SD_WS_115_0 humidity: 60
2021-08-01_14:39:19 SD_WS_115_0 windSpeed: 1.7
2021-08-01_14:39:19 SD_WS_115_0 windDirectionDegree: 158
2021-08-01_14:39:19 SD_WS_115_0 windDirectionText: SSE
2021-08-01_14:39:19 SD_WS_115_0 windGust: 1.9
2021-08-01_14:39:19 SD_WS_115_0 batteryState: ok
2021-08-01_14:39:19 SD_WS_115_0 windGust_kmh: 6.84
2021-08-01_14:39:19 SD_WS_115_0 windSpeed_kmh: 6.12
2021-08-01_14:39:19 SD_WS_115_0 DMSG: W115#068720B00C1618FE68FE1588186260FFF02B00000000000000000002
2021-08-01_14:39:19 SD_WS_115_0 RSSI: -85
2021-08-01_14:39:19 SD_WS_115_0 RAWMSG: MN;D=068720B00C1618FE68FE1588186260FFF02B00000000000000000002;R=234;
2021-08-01_14:39:19 SD_WS_115_0 Protocol_ID: 115
Intel(R) Atom(TM) CPU N270 mit 2 SIGNALduino nanoCC1101 + ESPEasy 2x serial server SIGNALduino nanoCC1101, Raspberry Pi 2 mit 2 CUL Stackable CC1101, Raspberry Pi 3 mit SIGNALduino radino + nano328 + 2 x SIGNAL-ESP CC1101 + LaCrosseGateway

Offline Ralf9

  • Developer
  • Hero Member
  • ****
  • Beiträge: 4398
Antw:FSK mit dem SIGNALDuino
« Antwort #289 am: 02 August 2021, 18:46:48 »
Falls die DMSG und die RAWMSG bei den Events nicht dabei sind ist evtl noch ein "addvaltrigger 1" erforderlich.
attr sduino addvaltrigger 1
Die DMSG und die RAWMSG müssten auch in den Internals des SD_WS_115_0 stehen.
FHEM auf Cubietruck mit Igor-Image, SSD und  hmland + HM-CFG-USB-2,  HMUARTLGW Lan,   HM-LC-Bl1PBU-FM, HM-CC-RT-DN, HM-SEC-SC-2, HM-MOD-Re-8, HM-MOD-Em-8
HM-Wired:  HMW_IO_12_FM, HMW_Sen_SC_12_DR, Selbstbau IO-Module HBW_IO_SW
Maple-SIGNALduino, WH3080,  Hideki, Id 7

Offline Brillomat

  • New Member
  • *
  • Beiträge: 41
Antw:FSK mit dem SIGNALDuino
« Antwort #290 am: 03 August 2021, 06:06:23 »
Hallo,

ich kann gerne noch mehr liefern - momentan tut sich beim Wind nicht wirklich viel.

LogRegex: SD_WS_115_0.*

2021-08-03_05:44:05 SD_WS_115_0 RAWMSG: MN;D=DA4220B0170C18FFFFFF2928112299FFF0EB0000000000000000002E;N=7;R=251;
2021-08-03_05:44:17 SD_WS_115_0 Ws: 0 Wg: 0 Wd: WNW R: 0.8
2021-08-03_05:44:17 SD_WS_115_0 Protocol_ID: 115
2021-08-03_05:44:17 SD_WS_115_0 RSSI: -75.5
2021-08-03_05:44:17 SD_WS_115_0 RAWMSG: MN;D=C03720B0170C18FFFFFF2928FFFFF7FF01B10000000000000000000E;N=7;R=253;
2021-08-03_05:44:17 SD_WS_115_0 DMSG: W115#20B0170C18FFFFFF2928FFFFF7FF01
2021-08-03_05:44:29 SD_WS_115_0 T: 11.2 H: 99 Ws: 0 Wg: 0 Wd: WNW
2021-08-03_05:44:29 SD_WS_115_0 RAWMSG: MN;D=DA4220B0170C18FFFFFF2928112299FFF0EB00000000000000000014;N=7;R=251;
2021-08-03_05:44:29 SD_WS_115_0 RSSI: -76.5
2021-08-03_05:44:29 SD_WS_115_0 Protocol_ID: 115
2021-08-03_05:44:29 SD_WS_115_0 DMSG: W115#20B0170C18FFFFFF2928112299FFF0
2021-08-03_05:45:17 SD_WS_115_0 T: 11.2 H: 99 Ws: 0 Wg: 0 Wd: WNW
2021-08-03_05:45:17 SD_WS_115_0 RAWMSG: MN;D=DA4220B0170C18FFFFFF2928112299FFF0EB00000000000000000033;N=7;R=253;
2021-08-03_05:45:17 SD_WS_115_0 RSSI: -75.5
2021-08-03_05:45:17 SD_WS_115_0 Protocol_ID: 115
2021-08-03_05:45:17 SD_WS_115_0 DMSG: W115#20B0170C18FFFFFF2928112299FFF0
2021-08-03_05:46:29 SD_WS_115_0 T: 11.2 H: 99 Ws: 0 Wg: 0 Wd: WNW
2021-08-03_05:46:29 SD_WS_115_0 DMSG: W115#20B0170C18FFFFFF2928112299FFF0
2021-08-03_05:46:29 SD_WS_115_0 RAWMSG: MN;D=DA4220B0170C18FFFFFF2928112299FFF0EB00000000000000000034;N=7;R=253;
2021-08-03_05:46:29 SD_WS_115_0 RSSI: -75.5
2021-08-03_05:46:29 SD_WS_115_0 Protocol_ID: 115
2021-08-03_05:51:30 SD_WS_115_0 Ws: 0 Wg: 0 Wd: WNW R: 0.8
2021-08-03_05:51:30 SD_WS_115_0 id: 20B0170C
2021-08-03_05:51:30 SD_WS_115_0 RSSI: -77
2021-08-03_05:51:30 SD_WS_115_0 Protocol_ID: 115
2021-08-03_05:51:30 SD_WS_115_0 RAWMSG: MN;D=C03720B0170C18FFFFFF2928FFFFF7FF01B100000000000000000038;N=7;R=250;
2021-08-03_05:51:30 SD_WS_115_0 DMSG: W115#20B0170C18FFFFFF2928FFFFF7FF01
2021-08-03_05:52:18 SD_WS_115_0 Ws: 0 Wg: 0 Wd: WNW R: 0.8
2021-08-03_05:52:18 SD_WS_115_0 DMSG: W115#20B0170C18FFFFFF2928FFFFF7FF01
2021-08-03_05:52:18 SD_WS_115_0 RAWMSG: MN;D=C03720B0170C18FFFFFF2928FFFFF7FF01B100000000000000000020;N=7;R=249;
2021-08-03_05:52:18 SD_WS_115_0 Protocol_ID: 115
2021-08-03_05:52:18 SD_WS_115_0 RSSI: -77.5
2021-08-03_05:52:30 SD_WS_115_0 T: 11.2 H: 99 Ws: 0 Wg: 0 Wd: WNW
2021-08-03_05:52:30 SD_WS_115_0 DMSG: W115#20B0170C18FFFFFF2928112299FFF0
2021-08-03_05:52:30 SD_WS_115_0 RAWMSG: MN;D=DA4220B0170C18FFFFFF2928112299FFF0EB0000000000000000000B;N=7;R=248;
2021-08-03_05:52:30 SD_WS_115_0 Protocol_ID: 115
2021-08-03_05:52:30 SD_WS_115_0 RSSI: -78
2021-08-03_05:53:30 SD_WS_115_0 Ws: 0 Wg: 0 Wd: WNW R: 0.8
2021-08-03_05:53:30 SD_WS_115_0 Protocol_ID: 115
2021-08-03_05:53:30 SD_WS_115_0 RSSI: -76.5
2021-08-03_05:53:30 SD_WS_115_0 RAWMSG: MN;D=C03720B0170C18FFFFFF2928FFFFF7FF01B100000000000000000000;N=7;R=251;
2021-08-03_05:53:30 SD_WS_115_0 DMSG: W115#20B0170C18FFFFFF2928FFFFF7FF01
2021-08-03_05:54:42 SD_WS_115_0 Ws: 0 Wg: 0 Wd: WNW R: 0.8
2021-08-03_05:54:42 SD_WS_115_0 DMSG: W115#20B0170C18FFFFFF2928FFFFF7FF01
2021-08-03_05:54:42 SD_WS_115_0 RSSI: -77.5
2021-08-03_05:54:42 SD_WS_115_0 Protocol_ID: 115
2021-08-03_05:54:42 SD_WS_115_0 RAWMSG: MN;D=C03720B0170C18FFFFFF2928FFFFF7FF01B100000000000000000037;N=7;R=249;
2021-08-03_05:54:54 SD_WS_115_0 T: 11.2 H: 99 Ws: 0 Wg: 0 Wd: WNW
2021-08-03_05:54:54 SD_WS_115_0 RAWMSG: MN;D=DA4220B0170C18FFFFFF2928112299FFF0EB00000000000000000030;N=7;R=249;
2021-08-03_05:54:54 SD_WS_115_0 RSSI: -77.5
2021-08-03_05:54:54 SD_WS_115_0 Protocol_ID: 115
2021-08-03_05:54:54 SD_WS_115_0 DMSG: W115#20B0170C18FFFFFF2928112299FFF0
2021-08-03_05:55:06 SD_WS_115_0 Ws: 0 Wg: 0 Wd: WNW R: 0.8
2021-08-03_05:55:06 SD_WS_115_0 DMSG: W115#20B0170C18FFFFFF2928FFFFF7FF01
2021-08-03_05:55:06 SD_WS_115_0 RAWMSG: MN;D=C03720B0170C18FFFFFF2928FFFFF7FF01B10000000000000000003A;N=7;R=250;
2021-08-03_05:55:06 SD_WS_115_0 RSSI: -77
2021-08-03_05:55:06 SD_WS_115_0 Protocol_ID: 115
2021-08-03_05:55:18 SD_WS_115_0 T: 11.2 H: 99 Ws: 0 Wg: 0 Wd: WNW
2021-08-03_05:55:18 SD_WS_115_0 DMSG: W115#20B0170C18FFFFFF2928112299FFF0
2021-08-03_05:55:18 SD_WS_115_0 Protocol_ID: 115
2021-08-03_05:55:18 SD_WS_115_0 RSSI: -76.5
2021-08-03_05:55:18 SD_WS_115_0 RAWMSG: MN;D=DA4220B0170C18FFFFFF2928112299FFF0EB0000000000000000000A;N=7;R=251;
2021-08-03_05:55:30 SD_WS_115_0 Ws: 0 Wg: 0 Wd: WNW R: 0.8
2021-08-03_05:55:30 SD_WS_115_0 DMSG: W115#20B0170C18FFFFFF2928FFFFF7FF01
2021-08-03_05:55:30 SD_WS_115_0 Protocol_ID: 115
2021-08-03_05:55:30 SD_WS_115_0 RSSI: -78
2021-08-03_05:55:30 SD_WS_115_0 RAWMSG: MN;D=C03720B0170C18FFFFFF2928FFFFF7FF01B10000000000000000001D;N=7;R=248;
2021-08-03_05:55:42 SD_WS_115_0 T: 11.2 H: 99 Ws: 0 Wg: 0 Wd: WNW
2021-08-03_05:55:42 SD_WS_115_0 RAWMSG: MN;D=DA4220B0170C18FFFFFF2928112299FFF0EB00000000000000000024;N=7;R=246;
2021-08-03_05:55:42 SD_WS_115_0 RSSI: -79
2021-08-03_05:55:42 SD_WS_115_0 Protocol_ID: 115
2021-08-03_05:55:42 SD_WS_115_0 DMSG: W115#20B0170C18FFFFFF2928112299FFF0
2021-08-03_05:55:54 SD_WS_115_0 Ws: 0 Wg: 0 Wd: WNW R: 0.8
2021-08-03_05:55:54 SD_WS_115_0 DMSG: W115#20B0170C18FFFFFF2928FFFFF7FF01
2021-08-03_05:55:54 SD_WS_115_0 RAWMSG: MN;D=C03720B0170C18FFFFFF2928FFFFF7FF01B10000000000000000002C;N=7;R=245;
2021-08-03_05:55:54 SD_WS_115_0 Protocol_ID: 115
2021-08-03_05:55:54 SD_WS_115_0 RSSI: -79.5
2021-08-03_05:56:06 SD_WS_115_0 T: 11.2 H: 99 Ws: 0 Wg: 0 Wd: WNW
2021-08-03_05:56:06 SD_WS_115_0 RAWMSG: MN;D=DA4220B0170C18FFFFFF2928112299FFF0EB00000000000000000011;N=7;R=248;
2021-08-03_05:56:06 SD_WS_115_0 Protocol_ID: 115
2021-08-03_05:56:06 SD_WS_115_0 RSSI: -78
2021-08-03_05:56:06 SD_WS_115_0 DMSG: W115#20B0170C18FFFFFF2928112299FFF0
2021-08-03_05:56:18 SD_WS_115_0 Ws: 0 Wg: 0 Wd: WNW R: 0.8
2021-08-03_05:56:18 SD_WS_115_0 DMSG: W115#20B0170C18FFFFFF2928FFFFF7FF01
2021-08-03_05:56:18 SD_WS_115_0 Protocol_ID: 115
2021-08-03_05:56:18 SD_WS_115_0 RSSI: -78.5
2021-08-03_05:56:18 SD_WS_115_0 RAWMSG: MN;D=C03720B0170C18FFFFFF2928FFFFF7FF01B100000000000000000032;N=7;R=247;
2021-08-03_05:56:30 SD_WS_115_0 T: 11.2 H: 99 Ws: 0 Wg: 0 Wd: WNW
2021-08-03_05:56:30 SD_WS_115_0 RAWMSG: MN;D=DA4220B0170C18FFFFFF2928112299FFF0EB0000000000000000000D;N=7;R=251;
2021-08-03_05:56:30 SD_WS_115_0 Protocol_ID: 115
2021-08-03_05:56:30 SD_WS_115_0 RSSI: -76.5
2021-08-03_05:56:30 SD_WS_115_0 DMSG: W115#20B0170C18FFFFFF2928112299FFF0

LG,
Michael

Offline Ralf9

  • Developer
  • Hero Member
  • ****
  • Beiträge: 4398
Antw:FSK mit dem SIGNALDuino
« Antwort #291 am: 03 August 2021, 08:26:19 »
Zitat
T: 11.2 H: 99 Ws: 0 Wg: 0 Wd: WNW

Die Luftfeuchtigkeit ist mit 99 etwas hoch.

Ist der batteryState immer noch low?
FHEM auf Cubietruck mit Igor-Image, SSD und  hmland + HM-CFG-USB-2,  HMUARTLGW Lan,   HM-LC-Bl1PBU-FM, HM-CC-RT-DN, HM-SEC-SC-2, HM-MOD-Re-8, HM-MOD-Em-8
HM-Wired:  HMW_IO_12_FM, HMW_Sen_SC_12_DR, Selbstbau IO-Module HBW_IO_SW
Maple-SIGNALduino, WH3080,  Hideki, Id 7

Offline Brillomat

  • New Member
  • *
  • Beiträge: 41
Antw:FSK mit dem SIGNALDuino
« Antwort #292 am: 03 August 2021, 09:09:56 »
Die Luftfeuchtigkeit ist mit 99 etwas hoch.

Ist der batteryState immer noch low?

Ich habe die Batterien noch nicht gewechselt - die Basisstation zeigt weiterhin low an, in FHEM ist der batteryState ok.

Hier ist noch ein Logifleschnipsel mit ein wenig Wind:
2021-08-03_08:59:19 SD_WS_115_0 T: 12.3 H: 97 Ws: 0.6 Wg: 0.6 Wd: NNW
2021-08-03_08:59:19 SD_WS_115_0 windSpeed: 0.6
2021-08-03_08:59:19 SD_WS_115_0 windSpeed_kmh: 2.2
2021-08-03_08:59:19 SD_WS_115_0 windGust: 0.6
2021-08-03_08:59:19 SD_WS_115_0 windGust_kmh: 2.2
2021-08-03_08:59:19 SD_WS_115_0 DMSG: W115#20B0170C18FF99FF3388123297FFF0
2021-08-03_08:59:19 SD_WS_115_0 RAWMSG: MN;D=B38620B0170C18FF99FF3388123297FFF0D8000000000000000001AB;N=7;R=11;

LG,
Michael

Offline Ralf9

  • Developer
  • Hero Member
  • ****
  • Beiträge: 4398
Antw:FSK mit dem SIGNALDuino
« Antwort #293 am: 03 August 2021, 10:59:36 »
Zitat
die Basisstation zeigt weiterhin low an
Ist dies evtl eine Anzeige, daß die Batterien in der Basisstation fast leer sind?

Es gibt auch Sensoren, wie z.B. LaCrosse, da wird nach einem Batteriewechsel ein Flag gesetzt, das Flag wird dann nach einigen Stunden automatisch wieder gelöscht.
FHEM auf Cubietruck mit Igor-Image, SSD und  hmland + HM-CFG-USB-2,  HMUARTLGW Lan,   HM-LC-Bl1PBU-FM, HM-CC-RT-DN, HM-SEC-SC-2, HM-MOD-Re-8, HM-MOD-Em-8
HM-Wired:  HMW_IO_12_FM, HMW_Sen_SC_12_DR, Selbstbau IO-Module HBW_IO_SW
Maple-SIGNALduino, WH3080,  Hideki, Id 7

Offline Brillomat

  • New Member
  • *
  • Beiträge: 41
Antw:FSK mit dem SIGNALDuino
« Antwort #294 am: 03 August 2021, 11:34:25 »
Ist dies evtl eine Anzeige, daß die Batterien in der Basisstation fast leer sind?

Also ... ich betreibe das Gerät mit Netzstrom (ein alternativer Batteriebetrieb wäre aber auch möglich). In der zugehörigen Bedienungsanleitung taucht das Batteriesymbol überhaupt nicht auf.
Aber: Ich habe mir jetzt auch mal (im Netz) ein paar Anleitungen älterer Bresser Stationen angeschaut - dort entspricht das Batteriesymbol dem Batteriezustand der Basisstation.

LG,
Michael

Offline elektron-bbs

  • Full Member
  • ***
  • Beiträge: 375
    • Elektron BBS
Antw:FSK mit dem SIGNALDuino
« Antwort #295 am: 03 August 2021, 17:24:55 »
Irgendwie sehe ich mit den diversen Artikelnummern nicht so richtig durch :-(
Gefunden habe ich z.B. folgendes:

Manual_7002510-7002511-7002512-7902510-7902511-7902512-9602510_Weather-Center-5in1_de-en_BRESSER_v032021a.pdf
https://www.optical-systems.com/out/media/95431902a995d53b0f3141c2ef8cfca8.pdf
2. Batteriestandsanzeige Basisstation
22. Batteriestandsanzeige Außensensor

Manual_7002580-7002581-7902580-7902581-7802580_WIFI-Colour-Weather-Station_it_BRESSER_v072021a.pdf
https://www.optical-systems.com/out/media/19f4e7dd1994303ac684cbbf686e6a3e.pdf
Sensor Batteriestand niedrig, gutes Signal Batterie-Symbol wird angezeigt

Es könnte auch sein, das die Wetterstation einen einmal empfangenen Zustand "Batterie leer" bis zum Neustart speichert.
Du könnest ja in den Logs vom Sensor nachsehen, ob irgendwann mal "batteryState: low" auftaucht.
Intel(R) Atom(TM) CPU N270 mit 2 SIGNALduino nanoCC1101 + ESPEasy 2x serial server SIGNALduino nanoCC1101, Raspberry Pi 2 mit 2 CUL Stackable CC1101, Raspberry Pi 3 mit SIGNALduino radino + nano328 + 2 x SIGNAL-ESP CC1101 + LaCrosseGateway

Offline Brillomat

  • New Member
  • *
  • Beiträge: 41
Antw:FSK mit dem SIGNALDuino
« Antwort #296 am: 03 August 2021, 20:55:42 »
Du könnest ja in den Logs vom Sensor nachsehen, ob irgendwann mal "batteryState: low" auftaucht.

Hallo,

der Zustand war nur einmal auf low, nachdem ich das Batteriefach geöffnet und wieder geschlossen hatte.
Der nächste Zustand war aber wieder ok.

Was die Versionen angeht, so stehe ich da auch ein wenig auf dem Schlauch. Meine Papierversion führt das Batteriesymbol auf dem Display noch nicht mal auf. Ich könnte mir aber trotzdem vorstellen, dass die Basisstation gemeint ist wie bei dieser Version https://www.bresser.de/out/media/fe393b387118d49fc708abcc5b1668f6.pdf

LG
Michael

Offline roelleke

  • Jr. Member
  • **
  • Beiträge: 79
Antw:FSK mit dem SIGNALDuino
« Antwort #297 am: 05 August 2021, 18:07:42 »
Hallo,
ich habe jetzt meinen neuen CC1101 Baustein erhalten und die neue Software mit meinem Bresser 6 in1/new 5 in1 (Bild)  ausprobiert.
Zunächst lief es auch ganz gut, aber nach ein paar Stunden funktionierte es nicht mehr.
Erst als ich die Bandbreite von 203 khz auf 541 khz geändert habe funktionierte es wieder. Damit funktioniert dann jetzt auch mein alter CC1101, wenn auch nicht so gut wie der neue.
Hin und wieder werden Temperatur und Feuchtigkeit nicht mehr aktualisiert. Im Log finde ich dann folgende Fehlermeldung:
2021.08.05 16:37:42 4: sduino8: SD_WS_Parse protocol 115, rawData 198001EB18FF99FF0688240253FFF0
2021.08.05 16:37:42 4: sduino8: SD_WS_Parse decoded protocol-id 115 (Bresser_6in1, new Bresser_5in1), sensor-id 198001EB
2021.08.05 16:37:42 3: sduino8: SD_WS_115_0 ERROR - Temp diff too large (old 25.6, new 24, diff 1.6)
 
Das ist etwas blöd wenn einige Werte ausfallen z.B. wenn man den Server neu startet oder Störungen auftreten. Die Werte werden erst wieder neu eingetragen wenn man die Readings "temperature" und "humidity" löscht, was natürlich etwas umständlich ist. Ich denke, bei der Prüfung sollte der Timestamp mit berücksichtigt werden, oder vielleicht sollte solch eine Überprüfung gar nicht vorgenommen werden.

Offline Ralf9

  • Developer
  • Hero Member
  • ****
  • Beiträge: 4398
Antw:FSK mit dem SIGNALDuino
« Antwort #298 am: 05 August 2021, 20:05:52 »
Das Problem sind die Attribute max-deviation-hum und max-deviation-temp, da ist in einigen Fällen der Defaultwert 1 zu wenig.
Siehe auch in der Device specific help
Diese Routinen sind anscheinend nicht für die Wetterstationen geeignet. Wahrscheinlich ist es besser, wenn diese Prüfung defaultmässig nicht aktiv ist.
Als Workaround kannst Du die Werte auf 50 erhöhen.

Evtl hast Du fehlerhafte CC1101 Module erwischt, wo die Frequenz nicht ganz passt. Wo hast Du diese gekauft? Die wo ich bis jetzt bei AliExpress gekauft habe waren alle ok.
FHEM auf Cubietruck mit Igor-Image, SSD und  hmland + HM-CFG-USB-2,  HMUARTLGW Lan,   HM-LC-Bl1PBU-FM, HM-CC-RT-DN, HM-SEC-SC-2, HM-MOD-Re-8, HM-MOD-Em-8
HM-Wired:  HMW_IO_12_FM, HMW_Sen_SC_12_DR, Selbstbau IO-Module HBW_IO_SW
Maple-SIGNALduino, WH3080,  Hideki, Id 7

Offline roelleke

  • Jr. Member
  • **
  • Beiträge: 79
Antw:FSK mit dem SIGNALDuino
« Antwort #299 am: 05 August 2021, 20:38:36 »
Danke für den Tipp mit den Attributen, die hatte ich noch gar nicht gesehen.
Die CC1101 Module habe ich bei Aliexpress und bei Amazon gekauft. Es sieht aber so ziemlich gleich aus. Ich werde mit den Frequenzen noch ein wenig herrumprobieren, vielleicht bringt das ja noch etwas.

 

decade-submarginal